Probability
0 0 0 0 0 0 0 0 0 0 0 1 3 7 12 22 37 50 56 55 53 50 50 53 53 50 44 39 34 28 21 16 12 8 6 5 5 6 5 3 2 1 0 0
0 0 0 0 0 0 0 0 0 0 0 1 3 5 9 19 34 48 56 56 52 50 50 51 53 52 46 38 31 25 20 16 12 8 6 5 4 3 3 3 3 2 1 0
0 0 0 0 0 0 0 0 0 0 0 1 2 2 6 15 30 44 52 53 52 50 49 48 51 51 45 36 28 23 19 16 13 10 8 7 5 2 2 2 3 3 2 1
0 0 0 0 0 0 0 0 0 0 0 0 1 1 3 13 28 41 46 49 50 49 47 46 46 44 40 33 27 23 20 17 14 12 11 9 6 3 2 2 3 3 3 3
0 0 0 0 0 0 0 0 0 0 0 0 0 0 2 10 24 35 41 44 47 45 43 42 41 37 32 28 24 21 18 15 13 12 11 9 6 3 1 1 3 3 3 3
0 0 0 0 0 0 0 0 0 0 0 0 0 0 1 7 17 28 35 39 40 39 38 38 36 31 26 24 22 18 15 13 12 11 10 8 5 2 1 0 2 3 3 3
0 0 0 0 0 0 0 0 0 0 0 0 0 0 1 5 13 24 32 34 33 32 33 35 33 28 24 21 19 16 13 12 11 11 10 8 5 2 1 0 1 2 3 3
0 0 0 0 0 0 0 0 0 0 0 0 0 1 3 9 15 25 33 34 31 28 31 33 30 25 20 16 14 14 13 11 9 9 9 7 5 2 1 1 1 3 4 4
0 0 0 0 0 0 0 0 0 0 0 0 0 1 6 12 18 26 33 34 31 29 31 30 25 21 16 12 12 12 12 8 6 6 6 6 5 3 2 2 3 3 4 4
0 0 0 0 0 0 0 0 0 0 0 0 0 1 5 11 18 25 32 34 32 31 31 26 21 18 16 13 11 10 8 6 4 4 6 7 6 3 3 3 3 3 4 5
0 0 0 0 0 0 0 0 0 0 0 0 0 1 4 9 16 24 31 35 34 31 29 23 19 19 19 16 11 8 7 5 4 4 5 7 7 4 3 3 3 3 3 4
0 0 0 0 0 0 0 0 0 0 0 0 0 2 5 9 15 24 31 34 31 28 24 20 18 20 23 20 15 11 9 7 6 6 5 5 5 4 4 3 3 3 3 3
0 0 0 0 0 0 0 0 0 0 0 0 1 4 7 11 18 26 31 29 26 24 22 19 18 21 24 24 20 16 11 8 8 8 6 4 3 4 5 4 3 2 2 2
0 0 0 0 0 0 0 0 0 0 0 0 2 6 10 13 20 27 30 27 25 27 26 24 22 22 25 25 23 17 11 9 8 8 6 4 4 5 5 5 3 1 1 1
0 0 0 0 0 0 1 1 1 1 1 2 5 10 12 14 20 25 28 29 30 32 33 32 30 29 28 27 23 17 12 9 9 8 7 5 5 4 5 5 4 3 1 0
0 0 0 0 0 1 2 3 3 3 4 6 10 15 16 17 22 28 32 35 36 36 38 39 39 37 34 30 24 18 13 11 11 10 7 6 6 5 4 5 6 5 3 1
0 0 0 0 0 1 2 3 4 6 9 13 15 18 21 23 27 33 38 41 42 41 42 42 42 41 40 35 27 19 15 13 12 10 8 6 6 5 4 5 6 6 4 3
0 0 0 0 0 1 2 3 5 11 18 21 21 23 26 30 32 36 40 41 41 42 43 41 39 40 41 38 30 23 19 17 14 11 8 7 7 5 4 5 6 6 5 5
0 0 0 0 0 1 3 5 8 17 27 29 29 30 32 35 39 39 38 37 38 39 39 38 37 39 39 37 32 26 23 20 16 12 9 8 7 5 5 7 7 7 6 6
0 0 0 0 0 2 5 9 13 20 27 30 32 34 35 38 40 38 36 37 38 39 39 39 39 39 36 33 31 28 24 21 15 10 8 8 7 6 7 8 8 8 7 7
0 0 0 0 1 3 7 11 14 18 22 26 31 33 34 34 34 33 34 36 38 39 41 41 39 35 31 29 30 29 26 21 15 9 8 8 8 7 7 7 7 7 8 9
0 0 0 0 1 4 8 10 12 14 19 24 29 31 33 33 33 31 31 32 34 35 37 37 35 32 28 29 30 30 26 21 15 11 9 9 8 7 6 6 6 7 7 8
1 2 4 5 7 8 9 10 11 12 16 20 24 28 33 34 32 29 27 27 27 26 27 29 30 28 26 28 28 25 21 18 14 11 9 9 8 7 6 6 6 6 7 7
3 5 9 14 15 13 11 11 12 13 15 17 19 25 30 30 27 25 23 22 22 22 22 24 25 24 24 24 24 21 18 15 11 9 7 7 7 6 6 6 6 6 6 6
4 6 11 14 15 14 13 13 15 17 19 20 22 24 25 24 22 20 20 20 20 22 23 22 21 20 19 19 18 18 15 12 9 7 6 5 6 6 6 5 5 5 5 5
4 5 9 11 11 12 15 17 18 20 21 24 25 25 25 22 19 18 18 18 20 22 22 21 19 17 16 15 15 15 13 10 7 6 6 4 5 6 6 5 4 4 4 4
Wind_Speed
1 3 3 7 6 6 4 3 3 3 1 4 4 4 6 9 9 10 9 9 8 8 6 7 8 8 8 6 6 6 6 6 5 3 3 2 2 2 2 2 4 5 5 5
4 5 10 7 6 4 3 2 3 4 3 4 3 1 3 7 10 12 12 11 10 8 6 7 7 7 7 7 6 5 6 6 5 4 3 2 3 2 2 2 3 4 5 5
6 8 6 5 5 4 4 2 2 2 4 5 5 5 3 1 3 6 8 9 9 10 10 9 8 7 7 7 7 6 6 6 5 5 3 2 2 1 1 2 2 3 4 5
6 8 6 5 5 3 4 4 0 2 4 2 3 0 4 1 1 4 6 7 9 10 9 9 8 7 7 7 6 6 6 6 5 5 5 5 4 3 4 3 3 3 4 4
6 4 4 5 6 3 4 2 1 2 3 3 3 3 5 1 1 3 6 8 9 9 10 10 9 9 7 6 6 5 6 5 5 5 6 5 3 3 2 2 3 3 3 3
8 6 4 6 4 2 1 6 7 7 6 3 3 3 4 3 5 5 6 8 9 9 9 8 7 7 5 5 5 5 6 5 5 5 5 5 4 4 3 3 3 3 2 2
6 7 5 3 1 3 6 8 6 6 5 4 3 3 5 4 4 7 9 9 9 9 9 8 8 7 6 6 6 5 6 5 5 5 5 5 5 5 5 4 4 3 2 2
3 7 5 3 6 4 3 10 8 4 3 5 4 1 4 1 3 5 7 8 10 9 9 9 8 8 7 7 6 6 6 5 5 5 4 4 4 3 3 4 3 3 3 3
5 7 6 5 5 8 3 4 8 8 1 1 3 2 4 3 6 6 6 6 8 9 10 9 8 7 7 7 7 7 6 5 4 4 4 3 3 3 3 3 3 2 2 2
6 4 7 4 2 3 7 7 6 6 3 1 3 2 4 3 3 5 6 6 6 7 8 8 7 7 6 6 5 5 6 5 5 4 4 3 3 3 3 3 3 2 2 1
7 3 6 3 4 6 3 4 6 5 6 6 2 6 6 8 8 8 7 7 7 7 7 6 6 6 6 5 5 5 5 4 4 4 3 3 3 3 3 3 3 2 2 2
7 6 3 7 6 7 7 7 8 5 3 5 4 6 4 8 7 8 8 8 8 8 7 6 6 6 5 6 6 5 5 4 4 3 3 3 2 3 3 3 3 3 2 2
8 7 1 7 8 3 1 3 6 7 5 4 4 5 2 3 4 6 8 8 7 7 6 5 5 6 6 6 5 5 5 5 4 4 4 3 3 3 3 3 3 3 3 3
9 6 8 8 7 3 3 3 2 6 4 4 6 6 3 4 6 7 8 8 8 7 7 7 6 5 6 6 6 5 4 4 5 4 4 3 3 3 3 3 3 3 3 4
8 5 4 4 3 1 1 4 2 3 7 8 8 8 8 8 8 9 9 9 9 8 7 7 7 6 6 6 5 5 5 5 5 5 4 3 4 4 4 4 4 4 4 4
6 5 3 2 3 3 3 4 3 2 3 5 6 4 4 4 5 5 6 8 8 7 7 7 6 6 6 6 6 6 6 6 6 6 5 4 4 5 4 4 4 4 4 3
4 6 5 1 3 5 4 4 1 1 1 5 6 6 6 5 6 6 7 9 8 7 6 6 6 7 6 6 6 6 6 6 6 6 6 5 5 5 4 4 4 4 4 4
7 6 5 3 4 2 7 2 3 5 5 3 4 6 8 7 5 4 5 8 7 7 7 6 5 5 5 5 5 5 6 6 6 5 6 6 6 5 5 5 4 4 4 4
7 8 5 4 2 3 5 4 2 5 5 4 6 6 6 6 7 5 2 4 6 7 7 7 6 6 5 6 6 6 6 5 6 5 5 5 6 6 5 5 4 4 4 4
6 7 7 5 3 3 4 5 1 7 3 4 4 5 5 5 5 1 0 2 3 4 5 5 6 6 6 5 6 7 6 5 4 4 5 5 5 6 5 4 4 4 4 4
4 4 5 4 2 4 5 5 3 5 4 2 3 5 4 3 4 4 2 3 4 5 5 5 6 5 5 5 6 6 5 4 4 5 5 5 5 5 5 4 4 5 5 5
5 4 4 4 3 5 5 3 4 5 3 3 5 4 5 6 6 5 5 5 5 5 5 6 5 4 3 5 6 6 5 4 5 6 6 5 4 4 5 5 4 4 5 5
3 6 6 6 5 3 1 4 4 5 5 4 6 5 7 7 6 6 5 5 5 5 5 5 5 5 3 3 5 6 4 5 6 6 5 5 5 4 4 4 4 4 4 4
3 2 5 4 2 2 4 4 3 4 6 6 7 7 7 7 6 6 5 5 5 5 4 4 5 4 3 3 3 4 5 6 7 6 5 5 5 4 4 3 3 3 3 3
2 3 5 4 2 5 6 4 3 4 6 7 7 6 7 8 6 6 5 4 4 5 4 4 4 4 3 3 3 3 4 6 6 6 5 5 4 5 5 4 3 2 1 2
3 2 5 3 3 3 1 2 3 5 5 6 7 6 5 6 6 6 5 4 4 4 4 4 4 4 4 4 4 3 3 5 7 5 4 4 4 4 4 5 4 8 5 5
Wind_Direction
327 66 251 245 224 215 252 297 308 281 220 93 105 129 161 164 158 156 157 161 168 169 162 148 147 148 145 149 153 157 154 159 154 146 145 142 147 157 171 185 176 177 179 170
13 270 243 246 262 273 290 322 326 334 25 77 89 68 167 163 175 174 165 164 165 152 146 147 145 148 152 159 159 156 160 163 167 163 156 158 151 166 185 192 184 184 182 178
217 246 259 259 269 289 301 266 277 312 19 37 71 6 357 19 155 163 158 158 159 160 164 159 154 155 154 161 168 170 166 166 173 160 138 128 105 99 148 193 201 203 193 189
246 254 262 271 261 211 268 265 241 54 58 326 92 145 297 286 98 165 163 159 162 164 163 159 156 156 163 170 166 162 162 165 172 162 158 166 173 190 206 198 199 204 194 191
257 257 246 249 249 202 227 262 59 70 79 22 16 115 283 350 141 193 175 168 160 161 160 161 165 166 168 168 164 165 162 167 171 169 170 177 188 201 201 190 182 196 198 193
255 268 234 225 244 216 112 39 26 42 62 17 278 140 263 238 201 181 181 168 159 157 156 154 156 153 157 162 163 162 165 175 178 178 178 185 190 194 188 182 179 194 197 200
304 298 274 231 255 343 74 74 29 6 14 268 278 124 244 242 186 165 172 172 166 159 153 150 153 156 160 164 167 166 168 178 183 186 193 198 195 188 187 185 187 193 194 208
232 282 263 211 173 174 153 130 148 183 219 285 338 189 261 228 140 137 151 158 158 157 156 159 166 165 169 171 172 170 173 181 184 186 193 194 187 184 189 186 179 186 195 208
195 256 273 233 182 147 147 164 163 134 151 348 317 316 342 46 89 98 121 144 163 161 159 162 166 168 172 173 176 175 175 181 184 179 172 177 174 175 178 176 177 185 192 199
176 258 290 269 126 157 156 152 94 105 136 256 307 285 219 202 141 126 134 154 164 156 156 160 163 170 173 171 169 164 169 174 174 171 169 164 167 168 167 160 165 165 175 169
169 195 300 349 176 192 162 128 113 123 149 147 214 270 229 194 173 158 158 160 158 157 161 163 167 171 164 156 156 156 158 156 159 163 160 149 157 158 148 146 155 155 154 149
169 142 242 269 256 191 164 170 144 149 208 154 156 263 257 182 172 154 158 162 159 160 163 158 161 162 154 152 155 157 157 158 164 164 153 152 147 142 139 146 153 151 147 137
150 127 100 339 340 352 162 179 157 138 128 147 152 249 276 167 152 148 150 154 149 150 160 156 153 162 159 155 155 158 159 160 158 151 146 146 137 133 137 143 139 132 122 104
123 118 154 187 211 237 284 274 169 127 152 193 198 203 250 186 167 153 149 149 151 160 165 163 161 163 161 160 162 162 161 156 147 140 140 140 134 130 128 118 110 107 106 100
111 134 165 189 204 154 294 284 260 187 185 180 200 187 208 200 171 158 152 147 149 158 165 166 163 163 162 159 164 164 161 153 146 137 135 137 126 114 105 99 97 99 98 101
92 122 109 8 7 18 339 313 297 253 195 167 149 192 209 173 133 130 142 142 149 162 169 164 157 151 156 160 164 164 163 156 148 143 142 138 128 117 115 113 109 103 97 93
89 107 100 322 347 38 324 285 246 274 300 157 172 192 154 136 138 155 156 144 148 155 155 153 160 158 166 167 159 163 161 150 148 148 146 143 135 133 135 127 116 111 106 95
117 101 112 101 57 227 249 287 97 82 31 71 124 142 145 153 148 129 141 145 150 153 148 150 163 159 159 154 151 150 145 144 146 145 147 148 144 143 136 127 125 122 114 105
123 122 109 111 140 275 303 334 21 95 25 20 102 117 130 125 87 45 58 135 158 160 155 154 158 155 149 150 149 139 137 139 141 147 148 148 146 142 137 135 133 127 116 106
71 96 108 116 138 213 263 299 306 100 48 340 100 127 134 110 106 217 356 93 115 117 124 132 135 131 136 143 138 134 138 136 143 149 143 140 139 138 140 141 131 122 118 116
62 68 114 133 160 254 270 299 41 101 207 271 111 129 127 121 154 166 121 85 88 97 104 111 118 126 137 133 129 131 133 142 140 130 125 124 130 136 135 129 126 126 122 117
158 144 162 137 153 250 295 38 107 172 177 114 98 98 103 104 97 91 89 90 86 84 87 95 99 100 104 117 125 129 139 138 127 124 123 122 121 126 128 127 126 130 131 125
152 178 166 159 188 232 14 106 137 141 120 110 106 103 108 105 99 95 88 91 95 95 93 95 103 94 84 104 130 136 140 129 127 125 123 116 108 105 115 127 133 133 133 134
337 45 94 86 61 64 59 72 77 95 105 106 109 112 112 108 108 101 98 91 91 91 92 93 97 97 90 92 107 130 134 128 128 127 124 121 116 103 89 87 106 131 143 148
317 45 71 83 79 52 30 33 65 86 89 90 94 101 111 115 108 104 101 94 90 90 90 95 103 104 96 86 90 109 123 126 124 125 125 120 114 112 94 77 58 82 98 158
331 114 124 168 209 140 150 10 54 84 95 103 101 88 90 109 113 108 102 98 95 93 93 91 92 98 97 92 86 83 99 122 127 126 126 125 121 117 116 112 84 51 62 73